Back to catalog

CZ-6A DEB

AlivePO
NORAD 61169·DEBRIS·🇨🇳 China

Launched Aug 6, 2024 from Taiyuan Satellite Launch Center

Loading…

Next Passes (next 24 hours)

TLE

FreshSource: Space-Track

Epoch: Sep 13, 2026, 19:06 UTC

1 61169U 24140RP  26256.79643596  .00008842  00000-0  14250-2 0  9990
2 61169  88.2922 191.2142 0091313 335.0204  24.6606 14.68600384109813

Track CZ-6A DEB in real time with AllMySat

Download on the App Store